This demonstration page uses our WeatherBlox Daily Observations layout. Learn more.

Left ArrowRight Arrow

Hourly Observations for November 15, 2018

Temp ( °F °C ) Dew Point ( °F °C ) Humidity (%) Winds ( mph kmh ) Pressure ( in mb ) Visibility ( mi km ) Precip ( " mm )
12:53 am 00:53 Clear 33 0.6 27 -2.8 78 78 Calm 30.25 1024 10 16 0.00 0.00
1:53 am 01:53 Clear 31 -0.6 26 -3.3 82 82 NE 3 6 30.24 1024 10 16 0.00 0.00
2:53 am 02:53 Clear 31 -0.6 26 -3.3 82 82 E 3 6 30.24 1024 10 16 0.00 0.00
3:53 am 03:53 Clear 30 -1.1 25 -3.9 82 82 ESE 3 6 30.22 1024 10 16 0.00 0.00
4:53 am 04:53 Clear 29 -1.7 25 -3.9 85 85 Calm 30.22 1024 10 16 0.00 0.00
5:53 am 05:53 Clear 28 -2.2 25 -3.9 88 88 N 6 9 30.23 1024 10 16 0.00 0.00
6:53 am 06:53 Clear 28 -2.2 25 -3.9 88 88 N 5 7 30.24 1024 10 16 0.00 0.00
7:53 am 07:53 Sunny 30 -1.1 26 -3.3 85 85 N 3 6 30.24 1024 10 16 0.00 0.00
8:53 am 08:53 Sunny 39 3.9 30 -1.1 70 70 Calm 30.23 1024 10 16 0.00 0.00
9:53 am 09:53 Sunny 45 7.2 30 -1.1 56 56 Calm 30.23 1024 10 16 0.00 0.00
10:53 am 10:53 Sunny 54 12.2 25 -3.9 33 33 SW 7 11 30.21 1023 10 16 0.00 0.00
11:53 am 11:53 Sunny 59 15 24 -4.4 26 26 SW 7 11 30.18 1022 10 16 0.00 0.00
12:53 pm 12:53 Sunny 62 16.7 24 -4.4 23 23 SW 7 11 30.13 1020 10 16 0.00 0.00
1:53 pm 13:53 Sunny 64 17.8 23 -5 21 21 SW 9 15 30.10 1019 10 16 0.00 0.00
2:53 pm 14:53 Sunny 66 18.9 21 -6.1 18 18 WSW 6 9 30.08 1019 10 16 0.00 0.00
3:53 pm 15:53 Sunny 66 18.9 22 -5.6 19 19 W 6 9 30.07 1018 10 16 0.00 0.00
4:53 pm 16:53 Sunny 66 18.9 21 -6.1 18 18 WSW 6 9 30.06 1018 10 16 0.00 0.00
5:53 pm 17:53 Sunny 61 16.1 23 -5 23 23 S 3 6 30.08 1019 10 16 0.00 0.00
6:53 pm 18:53 Clear 52 11.1 25 -3.9 35 35 SSE 7 11 30.11 1020 10 16 0.00 0.00
7:53 pm 19:53 Clear 50 10 25 -3.9 38 38 SE 7 11 30.12 1020 10 16 0.00 0.00
8:53 pm 20:53 Clear 46 7.8 28 -2.2 50 50 ESE 5 7 30.12 1020 10 16 0.00 0.00
9:53 pm 21:53 Clear 45 7.2 26 -3.3 48 48 SE 7 11 30.11 1020 10 16 0.00 0.00
10:53 pm 22:53 Clear 44 6.7 26 -3.3 49 49 SSE 5 7 30.10 1019 10 16 0.00 0.00
11:53 pm 23:53 Clear 35 1.7 28 -2.2 76 76 N 3 6 30.11 1020 10 16 0.00 0.00

Powered by AerisWeather